Theta_e
316 316 316 317 317 317 317 317 317 317 317 317 317 318 318 318 319 320 321 321 322 324 325 326 328 329 330 329 329 329 329 329 329 330 331 331 332 333 333 333 333 332 332 332 332 333 333 333 333 332 332 334 335 334 332 331 332 332 331 331 330 331 332 332 333 333 330 329 330 329 329 329 330 329 327 326 325 322 318 318 322 320 310 304 305
316 316 316 316 316 316 316 316 316 316 316 316 316 316 317 317 318 318 319 319 320 321 323 324 325 327 328 329 330 329 329 328 328 330 330 329 330 332 333 333 332 331 331 331 331 332 333 333 333 332 332 333 334 333 332 331 331 331 331 331 332 332 333 332 332 331 329 329 329 329 329 329 329 329 327 326 325 320 315 315 321 324 318 308 304
315 315 315 315 315 315 315 315 315 315 315 315 315 315 315 316 316 316 316 317 318 319 320 321 322 323 324 327 329 329 329 329 329 330 330 329 329 330 332 332 331 329 330 330 330 331 332 332 333 332 332 332 332 332 332 331 331 331 331 331 331 331 332 332 331 330 330 330 330 329 329 329 329 328 326 325 324 320 315 314 318 322 321 314 308
314 314 314 314 314 314 314 314 314 314 314 314 314 314 314 314 314 314 314 315 315 316 317 318 319 320 320 322 325 327 329 329 329 329 329 329 329 330 331 332 331 330 330 330 329 330 331 331 332 332 332 332 332 332 332 332 331 332 331 331 329 328 331 331 330 330 329 329 331 331 329 329 329 328 326 323 323 321 317 316 319 320 319 317 313
313 313 313 313 313 313 313 313 313 313 313 313 313 313 313 313 313 313 313 313 313 314 314 315 316 317 317 318 319 322 325 327 328 329 329 329 329 329 330 331 331 331 331 331 330 330 331 331 331 332 333 332 332 332 333 332 331 331 331 330 329 328 330 331 330 330 329 329 331 331 329 329 329 328 326 323 322 321 318 318 320 319 317 316 314
313 313 313 313 312 312 312 312 312 312 312 312 312 311 312 311 311 311 311 311 311 311 312 312 313 314 314 314 315 318 320 324 327 327 326 327 329 330 330 330 330 330 330 330 330 330 330 330 331 332 332 332 332 332 332 332 331 331 331 330 329 328 330 331 331 331 330 329 330 330 329 329 329 328 326 324 323 321 318 317 320 320 316 314 315
312 312 312 312 311 311 311 311 311 311 311 311 311 310 311 310 310 310 310 310 310 309 310 310 310 311 311 311 312 313 317 322 322 318 317 319 323 327 329 329 328 329 330 329 329 329 329 329 330 330 330 332 332 332 331 332 331 330 331 331 330 329 330 331 331 330 329 328 328 329 328 328 329 328 326 326 325 322 318 316 318 319 316 313 313
311 311 311 310 310 310 310 310 310 310 310 310 309 309 309 309 309 309 309 309 308 308 308 308 308 308 308 308 308 309 313 317 315 311 311 314 317 320 325 328 328 328 329 329 329 330 330 330 329 328 329 331 332 332 330 330 331 331 330 329 329 330 330 329 330 329 328 327 327 327 326 326 327 327 326 326 325 323 320 316 316 318 315 312 312
310 310 310 309 309 309 309 309 309 309 309 309 309 308 308 308 308 308 308 308 307 307 307 306 306 306 306 306 306 306 308 311 309 306 306 309 312 316 320 324 327 328 328 328 328 329 329 329 329 329 329 329 331 332 330 330 332 332 330 329 329 330 329 327 328 328 327 327 327 327 326 326 327 326 325 325 325 324 322 317 316 318 315 313 313
309 309 309 308 309 308 308 308 308 308 308 308 308 308 307 307 307 307 307 307 306 306 305 305 305 305 304 304 305 304 305 306 304 303 305 306 308 313 317 321 324 327 328 327 326 327 328 329 330 329 329 329 330 332 331 331 332 331 330 330 330 330 328 328 329 327 326 326 326 326 326 326 327 327 326 325 324 324 322 318 317 318 315 314 314
308 308 308 308 308 307 307 307 307 307 307 307 307 307 307 307 306 306 306 306 306 305 305 304 304 304 303 303 303 303 304 303 301 301 304 306 307 310 314 317 321 324 327 327 327 327 327 328 329 330 329 329 331 332 331 331 331 331 331 331 331 331 329 329 329 326 325 326 326 326 327 326 327 327 326 324 323 324 322 319 318 318 316 315 315
308 307 307 307 307 307 307 307 307 307 307 307 307 306 306 306 306 305 305 305 305 305 304 304 304 303 302 302 302 301 302 301 299 300 303 305 306 308 312 315 318 321 325 327 327 327 328 328 329 329 330 330 330 331 331 332 331 331 331 331 331 331 329 329 329 327 326 326 325 325 326 326 325 325 325 324 323 323 321 319 318 319 318 316 316
307 307 307 306 306 306 306 306 306 306 306 306 306 306 305 305 305 305 305 305 304 304 304 303 303 302 302 301 300 300 300 299 297 299 302 304 305 308 311 314 316 319 322 325 327 327 328 328 327 328 329 330 328 328 329 330 330 330 330 330 330 330 329 330 330 328 327 327 326 326 326 326 326 326 326 325 323 322 321 320 319 319 319 318 317
306 306 306 306 306 306 306 306 306 306 306 305 306 305 305 305 304 304 304 304 304 304 303 303 303 302 301 300 299 299 299 297 296 298 301 303 305 307 310 313 316 318 320 323 325 327 327 326 327 328 329 328 327 327 327 328 329 329 329 328 329 329 329 330 330 329 328 328 327 327 326 326 326 327 327 326 323 321 322 322 322 321 320 320 320
306 306 305 305 305 305 305 305 305 305 305 305 305 305 305 305 304 304 304 304 303 303 303 303 303 302 301 300 299 299 298 297 296 297 299 302 305 308 310 312 315 317 320 322 324 327 326 325 327 328 327 327 327 327 327 328 329 328 327 325 326 327 327 328 329 329 329 328 327 327 326 325 327 327 326 325 323 322 322 323 323 322 322 321 320
305 305 305 305 305 304 304 304 304 304 304 304 304 304 304 304 304 303 303 303 303 303 302 302 302 302 301 300 299 299 298 297 296 296 298 301 305 308 309 311 313 315 318 320 322 325 326 325 326 327 327 326 326 327 328 328 328 327 326 324 324 326 327 328 328 328 329 328 328 327 326 326 327 327 326 325 324 323 323 323 323 322 322 321 319
304 305 304 304 304 304 304 304 304 304 304 304 304 304 303 303 303 303 303 303 303 302 302 302 302 302 301 300 299 299 298 297 296 296 297 300 304 306 308 310 312 315 317 319 321 323 325 326 326 327 326 326 325 326 328 328 327 327 325 324 324 325 326 326 327 327 328 328 327 328 328 327 328 327 325 325 324 323 323 322 322 321 321 321 320
304 304 304 304 304 304 304 303 304 303 303 303 303 303 303 303 303 303 303 303 302 302 301 301 301 301 300 300 299 299 298 297 296 296 296 298 301 303 305 308 310 313 316 317 319 322 324 325 326 326 325 325 326 326 327 327 327 326 324 322 321 322 322 323 324 325 326 326 325 324 323 323 323 324 323 324 324 323 322 321 321 320 321 321 320
303 303 303 303 303 303 303 303 303 303 303 303 303 303 302 302 302 302 302 302 302 302 301 301 300 300 299 299 298 298 298 297 297 296 296 297 298 300 301 303 304 307 308 309 311 314 317 320 324 326 325 325 325 326 327 327 327 325 322 320 319 318 318 320 322 323 323 322 320 318 318 318 319 320 321 322 322 321 321 320 319 320 320 319 319
303 303 303 303 303 303 303 303 303 303 302 302 302 302 302 301 301 301 301 302 301 301 301 301 300 299 299 298 297 297 297 297 297 297 297 296 296 297 298 299 299 301 302 302 303 305 307 311 316 322 325 325 325 326 326 326 326 323 321 321 319 317 317 319 320 320 319 317 315 314 315 315 315 316 316 317 317 318 318 319 319 319 318 318 318
302 302 302 302 302 302 303 303 302 302 302 302 302 302 301 301 301 301 301 301 301 301 301 300 300 299 299 298 297 297 296 296 296 297 297 297 296 296 296 296 297 298 300 300 300 300 301 303 306 313 321 324 324 326 326 324 324 322 321 321 320 318 317 317 317 316 315 313 311 311 311 311 311 311 312 312 312 313 315 316 316 316 316 317 317
302 302 302 302 302 302 302 303 302 302 302 302 301 301 301 300 300 300 300 300 300 300 300 300 300 299 299 298 297 297 296 296 296 296 297 297 297 296 296 296 297 297 298 298 298 298 299 299 300 305 316 321 320 322 323 323 323 323 321 319 318 317 316 315 314 312 311 310 309 308 308 308 307 307 308 307 308 309 311 311 312 313 314 314 314
301 301 301 301 302 301 301 302 303 302 302 302 301 301 301 300 300 300 300 300 300 300 300 300 300 299 299 298 298 297 297 296 296 296 296 297 297 297 297 296 296 297 296 297 297 298 299 299 299 301 310 316 317 317 319 320 320 320 319 316 314 314 313 312 311 310 308 307 307 306 306 306 306 305 305 304 305 307 308 309 309 310 310 309 310
301 301 301 301 301 301 301 301 302 302 302 302 301 301 301 300 300 300 300 300 300 300 300 300 300 299 299 298 298 298 297 296 296 296 296 296 296 297 297 297 297 297 296 296 297 298 299 300 300 300 304 310 312 311 313 315 315 314 314 313 312 312 311 310 309 308 306 305 305 304 304 304 305 305 305 304 303 304 306 307 307 307 306 305 305
301 301 300 300 300 300 300 300 302 302 302 301 301 301 301 301 300 300 300 300 300 300 300 300 300 299 299 298 298 298 297 296 296 296 296 296 296 296 296 297 297 297 297 296 296 297 298 300 301 301 301 304 308 308 308 309 310 310 310 310 310 309 308 307 307 306 305 304 304 303 303 303 303 304 304 303 302 302 302 304 304 304 303 303 303
301 300 300 300 300 300 300 300 301 302 302 301 301 301 301 301 300 299 299 299 299 300 300 299 300 299 299 298 298 298 297 296 296 296 296 296 296 296 296 296 296 297 297 297 297 297 298 298 300 300 300 300 303 304 304 305 307 308 308 308 307 306 306 305 305 304 303 302 302 302 303 303 303 303 303 304 304 303 303 302 302 302 301 301 302
300 300 300 300 300 300 300 299 300 301 302 301 301 301 301 301 300 299 299 299 299 300 300 300 300 300 299 298 298 297 297 296 296 296 296 295 295 296 296 295 295 296 297 297 297 297 297 297 298 299 299 299 299 300 302 302 303 304 304 304 303 303 303 303 302 302 301 301 301 301 302 302 302 303 303 303 303 304 304 303 302 301 301 300 300
300 300 300 300 300 299 300 299 299 300 302 302 301 301 301 301 300 299 298 298 298 299 299 299 299 299 299 298 297 297 296 295 295 295 295 295 295 295 296 295 295 295 295 296 297 297 298 298 298 297 297 297 297 297 298 299 299 299 300 300 300 300 300 301 300 300 300 300 300 301 301 301 301 301 302 302 302 303 303 303 303 302 302 301 301
300 300 300 299 300 300 300 299 299 299 301 302 301 300 300 300 300 299 298 298 298 298 299 298 298 299 299 298 297 296 295 295 295 295 295 295 295 295 295 295 295 295 294 295 296 296 297 297 296 296 296 295 294 294 295 295 296 296 297 298 298 299 299 299 299 299 299 299 299 299 299 300 299 299 299 300 300 300 301 301 302 302 302 302 301
300 300 300 299 299 300 300 300 299 299 300 301 301 301 300 300 299 299 298 298 298 298 298 298 298 298 298 297 296 295 294 295 295 296 296 296 296 295 295 295 295 295 295 295 295 294 294 293 293 293 294 293 293 293 293 293 294 294 295 296 297 297 297 297 298 298 297 298 297 298 298 298 298 298 298 299 299 299 300 300 301 301 301 301 301
300 300 300 300 300 300 300 300 300 299 299 299 300 301 301 301 300 299 299 298 298 298 298 298 298 298 297 296 295 295 295 295 295 296 296 296 296 295 295 295 295 295 295 295 294 293 292 292 292 292 292 292 292 292 292 293 293 293 293 294 295 295 295 296 296 296 297 297 297 297 297 297 298 298 298 299 299 299 300 300 301 301 301 301 301
300 300 300 300 300 300 300 300 299 299 299 299 299 299 300 300 301 300 300 299 299 298 298 297 298 297 297 296 295 295 295 295 295 295 296 296 296 296 296 295 295 295 295 294 294 292 292 292 292 291 292 292 292 292 292 292 292 292 293 293 293 293 294 294 294 295 295 295 296 296 296 296 297 297 297 298 298 298 299 299 299 300 300 300 300
300 299 299 299 300 300 300 299 300 299 299 299 299 299 298 299 299 300 300 300 300 299 298 297 297 297 297 296 296 295 295 295 295 295 295 296 296 296 296 296 295 295 295 295 294 293 292 292 292 292 292 292 292 292 292 292 292 292 292 292 292 292 293 293 293 294 294 294 294 295 295 295 296 296 296 297 297 298 298 298 298 299 299 298 298
300 300 299 298 298 300 300 299 299 299 299 298 299 299 298 298 298 298 298 299 299 299 299 298 298 298 297 297 296 296 296 295 295 295 295 295 296 296 296 296 296 295 295 295 294 294 293 293 292 292 292 292 292 292 292 292 292 292 292 292 292 292 292 293 293 293 293 293 294 294 294 295 295 295 296 296 297 297 297 297 297 298 297 297 297
300 300 298 296 297 299 300 299 299 299 298 298 299 299 298 298 298 298 298 297 297 297 298 299 299 298 297 296 295 295 295 295 295 294 294 295 295 296 296 296 296 295 295 295 295 294 294 293 293 293 293 292 292 292 292 292 292 292 292 292 292 292 292 292 293 293 293 293 293 294 294 294 295 295 295 296 296 296 296 297 297 297 297 297 296
300 299 298 296 296 298 300 299 299 299 298 298 298 298 298 298 298 298 297 297 296 296 297 299 299 298 297 296 295 294 295 295 295 294 294 294 295 295 296 296 295 295 295 295 295 295 294 294 294 293 293 293 293 292 292 292 292 292 292 292 292 292 292 292 292 293 293 293 293 294 294 294 294 294 295 295 295 295 296 296 296 296 296 296 296
300 299 298 296 297 298 299 298 298 298 298 298 298 298 298 297 298 297 297 297 296 296 297 298 298 297 296 295 294 294 295 295 294 294 294 294 294 295 295 295 295 295 295 295 295 295 295 294 294 294 293 293 293 292 292 292 292 292 292 292 292 292 292 292 292 292 293 293 293 293 294 294 294 294 294 294 294 295 295 295 295 295 295 296 296
300 299 297 296 297 298 298 298 297 298 299 298 298 298 297 297 297 298 297 297 296 296 296 297 297 297 296 295 294 294 295 295 294 294 294 294 294 294 295 295 295 295 295 295 295 295 295 294 294 294 294 293 293 292 292 291 291 292 292 292 292 292 292 292 292 292 293 293 293 293 293 293 294 294 294 294 294 294 294 295 295 295 295 295 295
299 299 298 297 297 298 298 297 297 298 298 298 298 298 298 297 297 297 297 297 296 296 296 297 297 297 296 295 294 294 295 295 294 294 294 293 293 294 294 294 294 295 295 295 295 295 295 294 294 294 293 293 293 292 292 292 292 292 292 292 292 292 293 292 292 293 293 293 293 293 293 293 293 293 293 294 294 294 294 294 295 295 295 294 294
298 299 298 297 297 297 297 297 297 298 298 298 298 298 298 297 297 297 297 297 296 296 296 296 297 297 296 294 294 294 295 295 294 294 294 293 293 293 293 293 294 294 294 294 295 294 294 294 294 294 294 293 293 292 292 292 292 292 293 293 292 293 293 293 293 293 293 293 293 293 293 293 293 293 293 293 294 294 294 294 294 294 294 294 293
298 299 298 297 297 297 296 296 297 298 298 298 298 298 298 297 297 297 297 297 297 296 296 296 297 296 296 295 294 294 295 294 294 294 294 293 293 293 293 293 293 293 294 294 294 294 294 294 293 293 293 293 293 293 293 293 292 292 292 292 292 292 293 293 293 293 293 293 293 293 293 293 293 293 293 293 293 294 294 294 294 294 294 294 294
298 299 298 298 297 297 296 296 297 298 298 298 298 298 297 297 297 298 298 297 297 297 297 297 296 296 296 295 295 295 295 294 294 293 293 293 292 293 292 292 293 293 293 293 293 293 293 293 293 293 293 293 293 293 293 293 292 292 292 292 292 292 292 292 292 292 292 292 292 292 293 293 293 293 293 293 293 293 293 294 294 294 294 294 294
298 298 298 298 298 297 296 296 296 296 297 297 297 297 297 297 297 298 297 297 297 297 297 297 296 296 296 296 295 295 295 294 294 293 293 293 292 292 292 292 292 293 293 293 293 293 293 293 293 293 293 293 293 293 293 293 292 292 292 292 292 292 292 292 292 292 292 292 292 292 292 293 293 292 292 293 293 293 293 293 294 293 293 293 293
298 298 298 298 298 297 297 296 295 295 295 296 296 297 297 297 297 297 297 297 297 297 297 297 297 296 296 296 295 295 294 294 294 293 293 293 292 292 292 292 292 293 293 293 293 293 293 293 293 293 293 293 293 293 292 292 292 292 292 292 292 292 292 292 292 292 292 292 292 292 292 292 293 292 292 293 292 292 292 293 293 293 293 293 293
298 298 298 297 297 297 297 296 296 295 295 295 295 296 296 296 296 297 297 297 297 297 297 297 297 296 296 296 295 295 294 294 294 293 293 293 292 292 292 292 292 292 292 292 292 293 293 292 292 293 293 292 292 292 292 292 292 292 292 292 292 292 292 292 292 292 292 292 292 292 292 292 293 293 293 292 292 292 292 292 292 292 292 292 292
298 298 298 297 297 297 296 296 296 295 295 295 296 296 296 296 296 296 297 297 297 297 297 297 297 296 296 296 295 295 294 294 293 293 293 293 293 292 292 292 292 292 292 292 292 292 292 292 292 292 292 293 293 292 292 292 292 292 292 292 292 292 291 291 291 292 292 292 292 292 292 292 293 293 292 292 292 292 292 292 292 292 292 292 291
298 298 297 297 297 297 296 296 296 296 296 296 296 296 295 295 295 296 296 297 297 297 297 297 297 296 296 296 295 295 294 294 293 293 293 293 293 292 292 292 292 292 292 292 292 292 292 292 292 292 292 292 292 292 292 292 292 292 291 292 292 291 290 290 291 291 292 292 292 292 292 292 292 292 292 292 292 292 292 292 291 292 292 292 292
298 297 297 297 297 297 296 296 296 296 296 296 296 296 295 295 296 296 296 297 297 297 297 296 296 296 296 296 295 295 294 294 293 293 293 293 293 292 292 292 292 292 292 292 292 292 292 292 291 291 291 291 291 291 290 291 291 291 291 291 291 290 290 290 291 291 291 291 291 291 292 292 292 292 292 292 292 291 291 291 291 292 292 292 292
298 297 297 297 297 296 296 296 296 296 296 296 296 296 296 296 296 296 296 296 296 296 296 296 296 296 296 296 295 295 294 294 293 293 293 292 292 292 292 292 292 292 292 292 292 292 291 290 290 290 290 290 290 290 289 290 290 290 290 290 290 290 290 289 289 290 291 291 291 291 292 292 291 291 291 291 291 291 291 291 291 292 292 292 291
298 297 297 297 297 296 296 296 296 296 296 296 296 296 296 296 296 296 296 296 296 296 296 295 296 296 296 296 295 295 294 294 293 293 293 293 292 291 291 291 291 292 291 291 291 291 290 290 289 290 289 289 289 289 289 289 289 288 288 288 288 289 290 289 289 289 290 291 291 291 291 291 291 291 291 291 291 291 291 291 291 291 291 292 291
297 297 297 297 297 296 296 296 296 296 296 296 296 296 296 296 296 296 296 296 296 296 296 295 296 296 296 296 295 295 294 294 293 293 293 293 292 292 291 291 291 291 291 290 290 290 290 290 290 290 290 290 290 289 289 289 288 288 287 287 287 288 289 289 289 289 290 290 291 291 291 291 291 291 291 291 291 290 290 291 291 291 291 291 291
Wind_Speed
18 17 19 19 19 20 20 21 21 22 22 21 21 21 21 21 21 21 22 23 23 23 23 24 26 27 26 27 25 24 24 26 24 21 20 19 19 20 22 24 24 24 25 27 26 25 25 26 29 30 28 25 23 22 24 23 20 20 22 21 18 18 16 12 7 5 9 17 18 18 24 26 26 26 24 24 27 25 24 24 20 19 22 24 24
17 18 18 18 19 20 20 20 21 22 23 22 22 23 22 22 22 22 22 22 22 23 23 24 25 26 27 27 26 23 23 25 24 21 20 20 20 22 23 23 23 23 24 25 25 25 25 26 28 29 28 28 27 24 23 24 22 22 23 22 19 18 17 15 12 9 9 14 18 18 22 26 26 26 25 26 29 27 25 25 23 21 22 23 24
17 19 19 19 20 21 21 22 22 23 23 22 23 24 23 23 22 22 22 22 22 22 22 24 24 25 27 26 25 25 23 23 23 22 21 21 21 23 23 24 24 23 24 25 26 26 26 24 25 26 27 28 29 27 24 23 22 23 24 23 21 20 19 17 15 13 11 14 19 20 23 26 27 26 25 27 30 28 25 24 24 24 23 22 24
18 19 19 19 21 22 23 23 23 24 24 23 24 24 24 23 23 23 23 23 23 23 22 22 24 25 27 26 26 25 24 25 25 23 22 21 22 23 23 25 25 24 24 25 27 26 26 26 25 25 25 26 28 27 25 23 23 25 26 24 23 24 22 20 18 16 14 14 17 21 25 26 25 26 25 27 31 28 24 24 25 24 23 23 23
18 19 20 21 22 23 23 23 24 24 24 24 25 25 24 24 24 23 23 24 24 23 23 23 23 24 27 29 29 28 25 26 27 25 24 23 23 24 24 24 25 24 24 25 26 26 25 26 26 23 23 25 27 26 25 24 24 25 26 24 25 26 22 20 19 19 18 19 19 20 24 25 23 23 25 27 28 26 22 23 25 24 23 22 22
20 20 21 22 22 23 23 23 24 24 25 25 25 25 25 25 25 24 24 24 24 24 24 24 23 24 26 29 29 29 28 26 25 26 26 25 24 23 23 23 24 25 25 23 25 27 27 27 27 25 24 25 27 27 26 25 25 24 23 21 23 24 20 17 18 19 18 18 19 20 23 25 24 22 24 25 26 25 23 23 24 25 25 24 23
20 21 21 21 22 22 22 23 23 24 25 25 25 26 26 26 26 25 24 24 25 25 25 25 25 25 26 28 28 28 28 25 24 27 29 28 26 23 22 22 22 23 24 24 24 26 27 28 27 26 26 27 27 28 27 25 26 26 24 22 20 20 18 15 14 16 14 11 13 11 8 16 24 24 22 25 25 23 24 25 23 24 26 27 25
20 20 21 21 21 22 22 22 23 24 24 25 25 26 26 27 26 26 25 25 25 26 26 27 26 26 27 29 30 29 26 23 27 33 34 32 30 26 22 22 22 22 23 23 24 26 26 27 27 26 29 29 27 26 27 26 27 29 26 22 20 20 20 16 12 16 18 14 12 9 1 8 20 22 19 22 24 22 24 26 24 24 26 27 24
19 19 20 20 21 21 22 22 23 24 24 25 26 26 27 27 27 26 26 26 25 26 26 27 27 27 28 29 30 30 27 25 32 38 37 35 32 29 25 21 21 23 23 21 22 24 24 25 27 28 31 30 26 27 29 28 29 30 25 22 22 21 21 18 15 16 17 13 11 13 12 13 19 22 21 24 28 27 27 27 25 25 27 26 22
18 19 19 19 20 20 21 22 23 24 25 25 26 26 26 27 28 27 26 27 26 26 27 27 28 28 29 29 30 29 26 28 35 39 37 35 33 30 26 23 21 22 22 22 23 25 25 24 26 29 30 28 27 29 30 28 29 29 25 26 27 24 20 18 18 20 18 15 15 18 17 15 19 22 22 26 30 29 27 28 26 24 25 25 20
17 17 17 18 19 20 21 22 23 23 24 25 25 26 26 27 27 27 27 27 28 27 27 28 28 28 28 29 30 29 27 31 40 42 38 34 32 30 27 24 21 20 21 22 22 24 24 24 26 28 28 27 27 30 30 27 27 27 25 25 26 25 23 20 20 23 24 22 20 21 19 18 21 22 20 25 29 27 25 28 28 25 24 21 16
16 16 17 18 19 20 21 21 22 23 24 24 25 25 25 26 27 27 27 27 28 28 28 29 28 28 29 29 30 30 28 33 43 45 40 35 31 28 26 24 22 20 21 21 21 21 21 21 22 24 25 24 24 27 28 27 27 27 26 24 21 22 24 23 20 22 26 24 21 21 20 20 22 22 20 25 29 27 25 29 28 26 24 21 19
16 17 18 19 20 20 21 21 22 23 23 24 24 25 25 26 27 27 27 27 28 28 29 29 28 29 30 30 31 30 29 37 47 47 41 36 32 27 25 24 23 22 20 19 21 24 23 20 20 23 24 24 22 23 25 25 24 25 26 25 23 22 23 23 20 21 26 25 22 21 22 22 23 21 20 21 23 22 23 26 27 26 24 23 24
17 18 19 20 21 21 21 22 22 23 23 24 24 25 25 26 26 27 26 27 28 28 29 29 29 30 30 30 32 31 30 40 51 48 42 38 33 28 24 22 22 23 21 18 19 23 23 20 21 22 21 21 21 22 23 23 23 25 23 20 20 22 21 18 17 19 21 22 21 20 21 22 22 22 18 15 18 20 18 17 18 22 23 20 19
18 18 19 20 21 21 22 22 22 23 23 24 24 25 25 25 25 26 25 26 27 27 28 27 27 30 32 31 32 31 31 41 52 50 44 41 34 29 25 21 20 21 21 20 19 21 20 19 22 22 19 18 20 22 23 23 24 24 20 13 11 15 17 16 16 17 17 18 18 18 18 19 20 21 19 16 16 17 16 14 11 12 16 14 11
17 17 18 19 20 21 22 22 22 23 24 24 24 24 25 25 25 25 24 24 26 26 27 27 26 29 32 33 34 33 33 42 51 51 47 43 36 31 27 24 21 20 20 19 19 21 20 19 23 25 23 22 22 24 25 24 24 23 20 16 14 15 15 15 16 16 16 16 15 15 17 18 17 18 19 19 18 14 12 13 12 9 13 14 13
16 17 18 18 19 21 22 22 23 23 24 25 24 24 25 25 26 26 24 23 25 26 27 27 26 28 30 33 35 34 35 43 50 51 50 45 38 33 29 25 22 21 19 19 19 20 20 21 22 23 24 24 23 23 25 25 23 20 19 19 19 18 16 15 15 14 15 15 13 13 18 20 19 18 17 18 20 18 11 11 13 14 15 14 12
16 17 18 18 19 20 21 21 22 22 23 25 24 24 24 25 26 26 24 23 24 26 26 25 25 27 29 30 33 33 35 42 48 51 51 48 41 36 31 26 24 22 15 11 10 13 16 19 20 20 21 23 23 23 25 25 22 18 20 21 20 19 17 15 15 14 14 13 12 14 16 15 15 14 14 14 20 23 19 16 18 16 12 12 14
16 17 17 17 18 19 20 21 21 22 23 24 24 24 24 24 25 26 25 24 23 24 25 25 24 27 28 29 32 33 34 40 46 49 51 51 46 40 35 31 28 26 21 16 11 5 5 10 17 21 20 21 24 26 28 27 23 19 21 22 20 18 18 16 16 15 14 13 12 13 13 12 12 13 13 14 18 20 19 18 20 18 12 12 16
15 15 15 16 17 18 19 20 21 22 23 24 24 24 24 24 25 25 24 24 24 24 25 25 24 25 26 28 31 34 34 38 44 47 48 50 49 44 40 36 30 28 26 24 23 19 14 7 5 17 22 22 23 26 28 26 23 21 23 25 22 20 19 17 16 17 17 16 15 14 15 14 13 14 14 13 13 13 13 14 16 19 17 15 14
14 14 15 16 17 17 18 19 19 20 22 23 22 23 24 25 25 24 23 23 23 23 24 25 24 24 25 27 31 34 35 37 42 45 45 47 48 47 44 39 32 30 30 29 28 28 25 21 13 3 17 20 18 20 23 23 22 24 27 27 24 21 20 20 20 20 20 20 19 18 17 17 16 16 17 17 18 16 14 14 14 16 18 19 18
14 15 16 16 16 16 16 16 17 18 20 22 21 21 22 23 25 24 23 22 22 23 23 23 24 23 23 25 28 33 36 38 40 44 44 43 44 45 44 41 35 33 34 34 32 31 28 25 22 10 9 15 12 13 19 21 23 27 26 22 22 24 25 26 25 24 23 22 22 20 19 18 19 18 17 18 20 21 20 18 17 17 18 18 20
14 13 14 14 14 15 16 15 15 17 19 20 20 20 19 21 23 24 23 22 21 21 22 22 22 22 22 23 25 29 35 37 39 41 43 43 42 41 40 40 38 35 33 34 33 30 27 26 24 18 12 16 15 14 17 20 23 26 25 24 25 28 29 29 27 26 25 25 24 23 22 21 21 20 19 19 19 19 20 21 21 21 21 19 19
13 13 14 14 14 15 16 14 12 15 16 17 18 19 19 19 21 22 22 22 21 20 20 20 21 22 22 21 23 26 30 35 38 39 40 41 41 39 37 36 36 36 34 33 32 30 27 25 24 24 23 24 25 25 26 28 30 29 28 28 28 28 29 30 29 29 30 29 28 26 24 23 23 22 22 21 20 19 20 22 24 27 28 27 25
13 15 15 14 14 16 16 14 11 12 14 15 16 18 18 18 18 20 20 20 21 20 20 20 19 20 20 20 21 23 26 31 36 38 38 38 39 39 38 34 32 33 34 33 31 29 28 26 23 25 29 29 29 29 29 30 31 30 28 28 27 27 29 31 33 33 32 31 30 27 24 23 23 22 22 22 23 23 24 25 26 27 28 29 28
13 15 14 14 14 15 16 15 12 11 12 13 14 15 17 16 16 18 19 19 19 19 20 20 18 18 19 19 20 21 23 28 33 35 36 37 36 37 38 37 33 29 29 30 30 29 28 28 27 27 30 32 31 30 29 29 29 28 27 27 26 27 29 32 34 34 32 31 30 27 25 23 22 21 21 21 22 23 24 25 26 25 26 28 28
13 14 13 14 14 14 14 16 15 11 10 12 12 13 15 15 15 17 17 17 18 18 18 19 18 17 18 19 20 21 23 26 31 33 33 34 35 34 35 36 35 32 28 26 26 28 29 29 30 30 30 32 33 33 32 32 31 29 29 29 29 28 29 32 34 33 31 31 30 28 26 25 24 22 22 22 21 20 20 22 24 24 24 27 28
12 13 13 15 16 15 15 18 18 14 10 10 11 12 12 12 12 15 17 17 17 17 16 17 18 16 16 18 20 21 23 26 29 30 29 30 32 32 32 32 33 33 31 25 22 22 25 27 30 32 32 33 34 34 34 34 33 32 32 32 31 30 30 32 34 32 30 29 29 27 26 25 24 24 24 24 23 21 20 21 22 21 21 24 25
12 12 13 13 16 16 15 15 17 16 12 8 7 9 11 11 10 11 14 16 17 16 15 16 17 16 14 17 19 20 22 26 27 26 25 25 26 28 28 28 28 28 28 25 22 21 23 26 29 31 32 32 32 33 33 32 31 31 31 32 32 30 30 32 32 31 30 29 28 27 25 24 22 21 22 21 20 19 18 18 18 17 18 20 20
13 13 12 12 13 15 16 16 18 19 16 10 6 4 6 9 10 11 11 12 14 16 15 14 16 16 14 15 18 20 22 25 26 25 24 23 23 24 25 25 25 25 25 26 27 28 28 28 28 28 28 29 29 29 28 28 28 28 29 31 32 31 30 30 30 30 30 29 28 27 25 23 21 19 19 19 18 16 15 16 16 15 16 17 17
12 14 14 13 13 14 16 17 17 16 16 15 13 7 4 5 7 9 10 10 11 13 14 13 14 15 16 16 18 20 22 23 24 25 25 24 22 22 23 24 24 24 24 26 29 29 28 27 27 26 26 26 26 25 24 24 24 25 26 28 29 28 27 26 26 27 28 28 28 27 26 24 23 21 20 20 19 17 16 16 16 16 16 16 15
11 12 14 14 13 13 13 15 16 16 15 16 17 15 11 9 8 8 8 8 8 10 13 13 13 15 17 18 19 21 22 23 23 23 24 25 23 20 20 22 23 22 23 26 27 26 25 25 25 25 25 25 24 23 23 23 23 23 24 26 25 25 25 24 24 25 27 27 26 25 24 23 22 21 20 19 18 18 17 16 16 16 16 15 13
10 11 11 13 13 13 12 13 15 16 16 15 15 17 16 15 14 12 9 8 7 6 8 13 16 16 17 19 21 20 20 22 23 24 24 24 24 22 19 20 21 21 22 23 23 22 22 23 23 24 24 24 23 22 23 23 23 22 23 23 22 22 22 22 22 24 24 24 24 23 22 21 20 19 18 17 17 17 16 15 15 16 16 14 12
7 9 11 14 15 14 12 11 12 14 15 14 14 16 17 16 17 17 14 12 11 7 5 9 15 17 18 22 24 23 21 20 21 24 24 24 24 23 20 18 18 20 20 20 19 19 19 20 20 21 22 22 22 22 22 22 22 22 22 21 20 20 20 21 22 22 22 22 22 21 19 19 19 18 17 17 17 17 16 15 15 15 14 15 16
6 8 12 15 15 14 14 13 13 12 14 14 14 15 16 17 17 18 16 16 17 14 8 8 14 18 19 22 26 27 25 20 19 22 23 23 23 23 21 18 18 19 19 19 17 16 17 17 17 18 20 21 22 22 21 21 21 21 20 20 20 20 20 20 21 21 21 20 20 19 18 18 17 17 16 16 16 16 15 14 14 13 13 14 16
9 10 12 13 12 13 13 13 13 12 13 13 12 13 14 15 15 17 16 15 17 18 14 11 14 17 19 21 26 28 25 20 19 22 23 22 22 22 21 19 18 17 17 17 16 15 15 16 16 16 16 17 19 19 19 19 18 17 18 19 19 19 19 19 19 19 19 19 18 17 17 17 16 16 16 16 15 14 14 13 12 12 13 14 13
7 8 11 12 11 11 12 11 11 12 13 13 13 12 12 12 13 15 15 14 16 18 17 14 14 15 17 20 24 27 24 20 21 23 22 21 21 21 21 19 17 15 15 15 14 14 14 15 15 15 15 15 15 16 17 16 16 16 16 17 18 18 18 18 18 18 18 17 16 16 15 14 14 14 14 14 14 14 13 13 12 11 12 12 11
4 5 10 13 11 10 11 11 11 11 11 12 13 12 11 12 14 15 15 14 15 16 16 14 13 12 14 18 22 23 21 20 21 23 22 22 22 22 21 20 18 16 14 13 13 13 14 14 14 14 14 14 14 14 15 16 18 18 17 17 17 17 16 16 16 15 15 14 14 14 14 14 13 13 12 12 12 11 10 11 10 10 11 12 11
5 4 7 11 10 9 11 12 13 12 10 10 14 16 15 13 14 15 14 14 14 14 15 15 12 10 12 17 21 22 20 19 20 22 22 21 22 21 20 20 20 18 15 13 12 12 12 12 13 13 13 13 13 13 13 14 14 15 14 13 13 12 11 12 12 12 11 11 11 12 12 12 12 12 11 11 12 12 11 10 8 8 10 11 12
7 6 7 9 10 10 10 11 12 13 12 12 15 17 17 15 15 15 15 14 13 13 15 15 12 10 11 15 20 21 19 18 19 20 19 19 19 19 19 19 20 21 19 16 13 13 12 12 12 12 11 11 10 10 11 10 10 11 11 11 12 11 11 12 11 10 10 10 10 11 11 10 10 10 10 10 10 10 10 10 9 8 9 9 10
7 7 7 9 11 11 10 10 10 10 11 13 13 13 13 13 13 15 16 17 15 14 14 14 13 11 11 15 18 18 17 16 17 18 17 16 17 17 17 16 17 18 19 18 15 13 12 11 11 11 10 9 9 9 9 10 10 10 10 11 11 12 12 11 11 10 10 10 10 10 10 9 9 8 7 6 5 5 8 9 8 8 8 8 8
5 5 6 8 9 10 10 10 10 9 10 11 11 9 10 11 11 12 14 15 15 15 14 13 13 12 12 14 16 16 14 14 15 16 15 14 15 15 16 15 14 15 17 17 15 13 11 10 9 9 8 8 8 8 8 9 9 9 10 11 10 10 10 10 10 10 10 11 11 11 10 10 9 7 6 5 5 4 6 6 6 8 10 12 11
10 8 6 6 8 10 10 10 11 10 10 10 10 8 8 8 8 9 12 13 13 14 14 12 11 11 12 13 14 14 12 11 12 13 14 14 14 14 14 13 12 13 16 16 14 12 10 9 9 10 9 9 9 9 9 9 8 8 9 9 8 9 9 8 8 9 10 10 9 8 8 7 7 7 8 9 9 9 9 7 8 11 13 14 14
11 9 8 8 9 10 10 10 10 10 11 12 13 11 10 10 7 7 10 12 12 12 13 12 10 9 10 11 12 11 10 10 10 12 13 13 13 13 12 10 10 12 14 15 13 11 9 8 8 10 11 11 11 10 10 11 10 8 8 7 6 8 10 10 9 8 7 6 8 7 5 6 6 5 6 7 8 11 13 12 12 13 11 9 9
11 8 7 8 8 9 10 10 10 10 11 12 12 12 13 14 11 7 8 10 12 13 13 12 9 7 9 10 10 9 9 9 9 11 12 11 11 11 11 9 7 9 12 13 13 12 11 10 9 9 9 9 10 9 10 10 10 10 9 7 5 5 7 8 9 7 4 5 9 9 5 5 6 6 7 8 8 9 10 10 11 11 8 6 6
12 8 6 6 8 10 10 10 10 11 11 12 11 10 11 13 14 10 10 10 12 14 14 11 7 6 7 10 10 9 9 9 9 10 11 10 10 10 9 7 5 6 9 11 11 11 11 11 11 11 10 8 8 8 9 7 6 7 8 7 6 4 3 4 6 6 3 5 12 13 8 6 5 5 8 9 9 7 6 6 7 7 6 6 7
11 7 6 7 8 9 10 9 9 10 11 11 12 12 12 12 13 12 11 11 12 14 13 13 10 7 6 8 10 10 11 10 9 9 10 10 10 10 9 7 5 5 8 10 9 8 8 7 8 10 10 7 6 9 11 8 4 3 4 5 5 4 4 3 4 5 4 5 10 14 12 9 7 6 7 8 8 7 4 3 4 5 6 7 8
10 5 7 7 7 9 9 9 9 10 11 10 12 14 13 12 12 13 13 13 13 12 12 13 12 8 7 8 9 9 9 8 7 7 8 9 10 9 8 6 5 4 6 7 8 8 8 7 6 6 6 6 7 9 11 9 5 5 6 5 4 4 4 3 2 3 3 4 8 11 11 10 9 8 6 5 6 8 6 4 4 5 6 6 6
8 4 6 5 6 7 8 8 10 12 11 13 14 14 13 11 12 13 13 13 13 12 11 13 12 9 7 8 8 8 8 8 7 6 5 7 10 10 9 7 6 5 5 6 8 7 7 7 7 5 5 6 7 7 7 7 6 6 5 4 3 3 4 3 2 1 1 2 6 9 8 7 7 8 8 5 4 5 6 6 6 6 6 5 4
6 6 6 6 6 7 7 7 9 12 12 12 12 14 13 11 12 12 12 12 14 14 14 14 13 10 7 7 8 7 7 8 8 6 5 7 9 10 10 9 9 7 6 6 7 6 6 8 9 8 6 5 5 6 7 8 9 8 7 6 5 4 3 3 2 1 2 2 5 8 8 6 4 3 6 7 5 2 3 4 4 4 4 2 2
7 5 5 6 7 8 8 7 8 10 10 10 12 14 12 11 11 11 11 12 13 14 14 14 13 10 8 7 8 7 6 6 6 5 5 6 8 7 8 9 10 9 7 6 5 5 6 7 8 7 5 3 3 5 7 9 9 8 7 6 5 3 2 2 2 2 2 1 3 5 7 7 4 1 4 8 6 4 3 4 3 2 3 4 1
Wind_Direction
17 20 16 15 12 8 6 3 2 360 357 359 357 352 349 348 346 344 342 341 340 338 334 331 331 330 327 324 316 308 306 305 300 294 285 271 260 254 248 246 244 239 235 232 230 229 228 229 228 224 222 220 220 222 221 217 213 222 228 221 230 242 223 194 177 173 188 189 184 183 185 185 183 185 188 191 191 188 187 197 202 199 200 202 202
14 20 19 14 12 10 7 5 3 1 359 359 358 356 354 352 350 348 346 344 343 341 338 335 334 334 332 327 320 316 313 307 303 299 291 282 272 262 252 247 244 239 237 233 229 228 228 229 228 224 223 222 222 224 220 217 215 218 222 220 226 233 220 204 190 178 190 196 191 189 189 191 188 184 187 190 187 182 185 195 201 201 202 203 204
17 21 18 14 14 10 7 6 5 3 2 360 359 359 357 355 353 351 349 348 345 343 341 339 338 337 337 335 328 325 320 310 301 296 294 290 281 270 258 250 246 241 239 237 233 229 227 227 226 225 226 224 225 226 220 215 215 216 217 217 224 231 222 210 200 187 184 192 196 195 190 190 190 185 186 192 187 181 185 195 198 199 201 206 207
20 21 16 15 14 11 10 8 5 5 3 0 0 0 359 358 356 354 352 351 349 346 344 343 341 339 339 340 337 333 326 317 310 303 298 292 282 272 261 256 256 250 242 237 236 234 230 229 227 226 226 223 222 224 219 215 215 218 220 217 222 232 222 208 207 200 193 195 199 197 190 187 189 186 183 186 187 184 184 190 195 196 200 209 213
20 20 17 15 14 12 11 8 5 4 2 2 2 1 1 2 360 358 356 354 352 350 348 346 344 342 340 338 339 338 335 328 321 314 305 295 285 277 267 261 258 253 247 240 236 234 231 230 229 227 226 225 223 221 217 215 215 218 222 220 225 233 221 206 209 206 201 203 203 199 194 190 189 188 182 179 183 186 185 187 192 194 199 206 212
20 20 18 16 13 11 10 8 6 4 2 3 4 2 3 4 3 1 359 357 356 353 352 349 347 345 343 342 341 340 340 339 334 330 323 310 297 286 274 267 262 257 253 246 239 236 234 233 231 226 223 225 227 225 219 217 216 215 217 217 223 229 218 203 206 206 206 213 210 199 191 187 187 188 185 179 177 181 188 191 191 193 198 200 203
20 21 19 17 12 9 10 7 5 5 3 4 4 4 5 5 5 3 1 0 359 356 355 351 349 347 344 345 346 344 345 349 349 348 346 338 324 307 289 277 271 266 260 251 241 236 235 234 233 230 228 227 229 228 222 219 220 218 214 213 219 224 216 202 201 206 213 234 240 228 184 177 187 186 183 186 184 181 187 193 192 192 195 197 198
22 21 19 17 12 9 9 7 6 7 5 5 6 6 6 6 6 5 4 3 1 359 357 353 351 350 347 347 348 350 353 352 348 348 349 345 339 330 312 291 278 273 267 257 242 234 235 238 238 236 233 230 230 229 222 215 218 221 216 213 218 221 217 209 201 206 213 222 234 247 234 179 194 189 181 190 195 193 195 194 192 191 193 195 198
22 22 19 16 12 11 10 7 7 7 5 6 8 7 6 6 6 6 5 4 3 360 359 357 354 352 350 348 348 352 355 351 345 347 348 346 342 337 326 309 290 278 270 262 250 242 241 243 243 241 237 230 228 230 224 214 216 220 215 209 214 214 213 211 194 192 207 216 210 209 206 202 200 191 186 191 196 199 201 194 190 192 190 186 189
24 21 19 15 12 12 10 8 8 7 6 6 7 6 6 6 5 6 5 5 4 2 360 358 357 355 352 351 350 350 353 350 346 346 347 347 344 337 330 319 302 284 270 262 256 248 242 238 237 238 239 234 227 226 223 218 219 219 211 210 216 211 204 202 189 181 195 211 203 195 199 204 199 192 191 193 197 203 202 189 184 186 181 175 179
27 23 19 16 14 13 11 10 9 8 8 6 6 6 6 5 6 5 4 5 4 3 2 360 359 357 354 353 352 350 351 350 348 347 346 345 343 338 331 323 309 291 275 264 254 246 242 240 238 236 235 233 229 226 225 222 220 215 207 210 217 212 202 195 184 179 189 203 202 191 191 200 201 200 196 195 203 214 205 185 178 178 173 170 176
30 26 23 20 18 16 14 12 10 9 8 7 7 7 7 6 6 4 4 5 4 3 3 1 1 360 357 356 354 353 352 349 348 349 348 345 342 337 331 324 315 298 282 270 258 249 244 240 238 237 233 229 227 226 223 219 216 214 210 209 213 214 210 203 191 182 186 193 196 192 193 198 201 206 206 203 210 216 199 181 179 180 177 177 182
31 27 26 23 21 19 16 14 12 10 9 8 8 9 9 9 9 5 3 3 5 5 3 1 2 1 360 359 356 354 353 350 350 351 349 346 343 337 330 323 316 307 293 278 264 256 250 238 233 235 232 225 222 225 225 218 214 217 217 213 210 209 208 204 198 193 193 196 197 197 201 202 200 205 210 206 205 200 185 178 181 184 184 186 191
31 27 25 24 23 21 19 17 14 11 10 10 10 10 10 11 11 8 5 4 5 5 2 1 3 2 0 359 357 356 355 354 355 356 353 348 344 338 332 324 316 310 303 292 273 259 248 231 223 225 224 220 219 227 231 223 215 214 213 209 203 199 198 196 188 188 195 203 205 205 207 208 207 212 219 211 196 188 182 180 183 188 192 196 202
29 27 26 25 23 21 19 18 15 12 12 13 13 12 11 12 12 10 9 7 5 4 2 0 3 5 3 1 359 359 357 357 359 1 357 352 347 342 338 332 323 313 304 298 284 265 247 231 227 226 225 225 221 222 228 225 219 213 204 193 186 188 194 196 190 190 193 198 204 206 205 209 214 220 226 221 202 193 192 194 194 193 191 187 180
26 25 26 25 24 22 19 16 15 14 13 13 15 15 12 11 11 9 9 11 10 7 4 1 2 5 6 6 4 3 1 -0 2 5 3 357 352 350 348 341 330 318 305 298 288 273 257 241 234 230 228 229 223 219 222 221 218 208 192 184 187 186 187 191 192 196 196 196 203 203 198 203 214 217 217 214 204 195 197 204 204 185 166 153 138
26 25 25 24 26 25 19 15 14 14 13 13 15 18 16 12 9 7 8 13 15 12 6 2 3 5 6 8 8 7 6 5 7 8 8 6 2 359 355 346 336 328 313 299 288 273 255 236 225 221 223 226 224 221 220 217 213 200 177 171 180 181 182 188 190 191 196 200 201 192 191 203 212 211 209 207 200 197 197 196 190 179 167 157 137
29 28 24 23 27 27 23 19 15 14 14 12 13 17 18 15 11 7 6 12 16 15 9 5 6 7 8 10 10 9 8 9 11 12 13 13 13 10 5 359 356 354 342 316 285 259 238 225 217 216 223 228 225 223 221 215 206 185 161 160 169 166 165 174 178 176 184 190 183 167 167 178 184 181 182 184 188 195 197 186 178 179 175 158 142
31 30 22 21 28 29 26 22 17 16 16 14 15 17 17 16 15 11 9 10 14 15 12 9 10 11 11 13 14 12 10 10 14 16 17 18 20 19 17 14 10 10 12 13 6 339 249 220 211 209 217 224 223 221 216 206 195 179 163 160 162 155 153 160 162 159 156 154 149 137 127 127 132 138 148 158 169 183 189 183 181 185 175 143 135
30 30 21 22 28 29 28 26 22 21 19 16 17 18 16 14 15 15 12 10 11 14 14 12 13 12 11 12 13 12 11 12 16 19 20 21 23 24 24 21 16 14 16 17 15 13 9 360 215 201 203 209 215 216 209 198 193 188 178 171 165 157 156 157 152 146 139 130 125 122 116 114 115 117 122 127 134 149 163 169 179 186 179 158 143
25 25 23 23 27 30 31 29 27 25 21 19 19 20 19 15 13 15 14 11 12 14 14 13 14 11 9 10 11 13 14 15 18 21 22 22 23 25 27 25 22 23 26 25 20 14 11 11 13 189 193 196 205 209 201 191 188 186 180 175 169 158 150 148 143 137 132 125 118 115 112 107 103 103 106 104 102 110 128 143 155 165 165 159 147
26 25 25 22 25 32 32 29 30 27 22 19 18 20 22 19 14 12 13 12 14 16 14 14 15 12 11 11 11 14 17 18 20 22 24 23 23 24 26 26 27 29 31 31 27 20 16 16 17 27 162 174 181 191 191 187 183 180 175 164 154 147 142 140 136 129 122 116 109 103 100 101 99 99 100 97 94 94 99 108 122 132 136 139 137
30 25 28 24 25 33 30 26 32 31 22 18 18 18 22 22 16 11 11 11 14 17 15 14 14 13 12 11 9 10 14 17 18 20 21 23 23 23 24 26 28 30 31 31 31 27 25 25 23 34 91 128 130 136 153 160 159 160 157 147 140 140 138 132 128 123 117 111 105 98 96 97 97 97 98 98 98 99 97 97 103 111 113 111 113
32 25 26 25 28 34 29 23 35 38 24 17 17 17 21 24 18 12 11 11 12 16 15 13 14 13 9 8 7 6 9 13 16 17 18 19 21 22 23 23 26 29 30 31 33 33 35 37 32 37 64 96 107 107 116 128 131 131 133 135 135 136 134 130 126 121 115 107 101 95 94 96 98 99 101 103 105 108 108 105 102 103 103 102 102
37 33 22 15 23 33 26 17 30 45 31 19 19 19 21 25 19 14 13 11 10 12 14 13 15 13 7 5 7 6 7 11 16 17 16 16 17 19 22 23 24 26 28 30 34 38 43 48 47 44 52 75 93 94 94 106 119 122 123 125 127 128 128 125 122 117 110 105 101 97 96 98 101 103 105 106 107 108 109 108 107 106 106 106 104
43 46 22 7 19 32 24 14 26 47 37 24 25 24 23 27 24 18 16 13 9 9 11 12 15 15 10 5 5 6 8 10 14 16 16 16 16 17 20 23 23 23 24 26 31 41 46 50 55 54 51 59 76 83 82 87 102 113 116 116 116 117 118 118 116 113 108 104 102 100 99 102 108 110 109 107 104 104 105 103 103 104 107 106 103
37 50 29 7 13 28 25 16 22 41 42 32 31 29 26 31 30 25 23 19 14 11 9 10 13 15 13 7 3 4 7 8 10 13 14 15 17 18 19 21 22 22 20 18 23 35 45 50 56 61 60 58 64 73 79 81 84 91 99 103 102 102 107 110 109 107 106 105 104 102 102 105 108 107 105 101 96 98 104 104 100 98 99 100 98
25 48 40 12 5 18 27 18 18 32 45 41 37 36 37 41 37 31 30 29 24 20 17 13 13 15 16 12 7 5 5 6 7 9 11 14 17 20 20 20 20 22 22 20 19 25 37 47 52 56 59 58 56 61 69 73 74 76 84 92 93 93 97 102 102 101 103 106 106 105 103 101 96 94 94 92 86 86 93 99 98 94 90 90 92
16 35 48 26 5 10 22 19 18 28 37 38 42 46 48 51 47 35 31 31 30 28 27 24 22 21 18 14 12 9 7 8 10 10 11 13 17 22 24 21 20 21 25 30 33 31 33 41 45 47 49 50 49 50 56 62 67 70 76 83 88 87 86 88 91 94 97 100 101 102 102 97 89 86 87 86 83 81 84 89 92 91 88 90 96
15 11 31 38 18 9 11 11 15 21 21 16 26 50 49 43 41 35 29 30 30 29 28 28 26 24 22 17 15 15 13 13 15 16 15 15 16 21 26 25 21 21 27 35 42 43 41 42 44 47 49 49 48 49 51 55 60 63 68 76 82 84 82 82 86 90 94 96 97 99 101 100 97 95 96 96 95 96 96 96 97 99 102 106 112
27 5 7 19 22 19 13 7 9 13 12 11 16 21 26 27 26 22 19 22 26 26 28 28 22 20 23 21 17 17 17 16 17 18 17 17 17 19 24 26 23 22 28 37 42 43 43 43 43 46 50 52 52 53 56 59 60 62 67 72 77 81 84 85 89 94 97 98 99 100 101 102 103 104 106 106 104 103 103 104 104 105 107 110 113
42 20 3 358 6 21 19 7 6 7 7 13 17 14 10 11 7 360 359 4 14 24 30 30 22 16 19 20 15 13 16 16 13 14 16 16 15 16 20 25 25 23 28 37 42 43 44 45 45 45 48 51 54 56 60 62 63 65 69 71 74 78 82 86 91 95 96 96 97 97 98 98 99 99 99 100 99 97 97 99 102 104 107 106 105
45 32 12 351 353 11 14 8 11 7 359 6 17 11 6 8 7 0 353 351 357 15 28 28 25 19 17 15 10 7 12 15 14 14 16 16 14 14 17 22 24 24 28 36 41 42 45 48 48 48 50 52 54 58 61 63 65 67 69 70 73 76 82 89 92 91 91 91 91 92 93 94 96 97 98 100 102 100 97 98 100 103 104 96 86
48 39 23 1 351 356 359 7 24 14 353 357 15 12 3 6 7 5 7 11 7 2 15 27 24 20 16 14 9 0 358 8 17 18 18 18 16 14 15 20 24 25 30 38 42 43 46 49 50 51 53 55 56 59 60 61 64 67 69 71 73 77 82 88 88 87 87 88 88 89 91 93 96 99 101 102 104 102 100 100 100 99 96 86 77
45 45 23 6 355 349 350 8 28 17 349 351 13 14 3 4 6 4 11 22 13 360 3 25 20 15 15 13 7 359 354 3 19 20 16 18 17 12 12 18 24 26 29 34 41 46 48 51 53 54 55 56 58 60 61 60 60 63 67 71 74 77 80 82 82 83 84 85 86 87 89 91 95 99 101 101 101 98 95 95 93 91 91 89 84
31 30 13 6 358 348 352 6 15 1 342 346 11 19 5 3 9 3 6 21 15 0 6 26 19 12 13 10 4 3 5 13 20 15 11 16 19 14 11 15 22 28 30 31 36 45 49 53 58 59 59 60 60 60 60 59 58 61 69 74 75 76 78 79 81 83 82 83 85 87 88 90 92 94 96 98 97 94 91 90 88 87 91 96 96
21 25 16 12 2 350 355 1 356 355 355 354 3 14 7 5 11 3 0 19 22 4 1 16 17 9 8 5 3 6 10 13 15 11 9 15 19 17 15 14 18 29 34 31 34 43 48 51 55 58 61 64 63 61 60 60 62 66 73 77 78 78 78 80 82 82 80 81 81 81 84 88 90 92 94 94 95 96 94 91 88 87 91 98 105
14 27 22 17 7 352 352 350 346 0 10 354 349 8 22 19 14 2 355 12 23 6 354 6 19 16 6 2 4 7 6 8 12 12 11 14 16 17 17 14 14 21 31 35 38 44 49 52 55 58 61 64 65 67 70 72 74 75 75 77 78 77 77 79 80 79 78 79 79 79 82 84 85 90 91 90 91 94 91 88 85 80 78 76 76
2 3 10 11 6 350 344 347 349 357 5 353 351 8 23 21 10 1 354 1 12 6 356 3 19 23 10 6 10 9 4 7 13 13 12 14 14 14 17 18 14 13 20 31 40 44 48 52 54 58 63 65 67 72 76 77 76 75 73 74 73 71 72 76 77 75 74 76 81 85 86 87 89 91 93 96 98 93 88 92 96 90 82 72 61
356 350 355 358 353 341 339 348 351 353 5 14 10 8 10 5 359 355 351 353 2 6 1 0 9 18 17 16 16 13 9 12 15 12 12 14 13 12 17 19 14 12 16 24 35 44 47 47 49 55 62 66 69 69 69 68 67 67 70 74 72 68 68 72 75 77 77 79 83 86 87 91 95 94 95 103 104 96 95 104 107 101 98 87 70
353 350 350 347 344 342 342 348 349 354 9 19 15 5 356 350 351 353 351 350 357 2 360 360 5 11 15 19 18 16 17 19 16 10 9 11 11 10 14 18 17 17 17 19 28 42 46 45 47 53 59 64 68 69 70 71 68 66 71 75 75 72 72 72 70 69 69 71 77 84 86 86 86 88 93 97 99 111 121 119 108 101 99 94 85
319 333 346 347 347 348 346 344 346 356 7 7 2 357 345 340 351 0 353 347 350 353 355 3 8 3 3 12 16 17 21 22 15 10 10 11 8 8 11 15 20 21 17 15 22 36 44 44 46 51 57 62 64 64 67 71 71 68 68 72 77 81 80 75 71 73 78 81 84 89 91 84 74 72 73 64 66 105 129 128 119 107 91 80 83
309 324 352 8 357 348 348 347 346 351 353 341 324 317 327 342 5 10 354 346 350 353 352 358 4 359 358 4 8 13 20 21 15 14 15 11 6 5 7 11 19 26 24 20 23 34 43 41 36 35 40 44 47 50 55 58 63 69 71 72 76 80 79 79 78 81 87 84 74 75 86 84 73 69 65 54 55 71 78 83 100 100 85 74 76
307 325 355 11 0 346 345 348 346 347 348 337 321 319 336 355 10 15 0 352 352 351 347 347 353 1 3 1 2 12 24 28 25 22 19 11 4 3 3 7 19 31 30 22 20 28 37 38 34 35 35 34 34 37 41 43 49 63 75 79 75 68 73 79 76 69 71 59 37 37 72 86 76 77 78 65 62 69 70 74 86 87 74 64 66
305 325 352 1 355 345 341 342 346 350 348 339 332 338 349 349 347 4 21 8 351 345 342 342 351 11 10 0 3 21 37 40 33 23 16 9 0 354 355 3 19 30 29 23 21 25 30 33 40 42 37 33 30 27 25 31 39 45 56 73 81 62 62 69 62 52 57 46 27 27 65 97 76 68 77 80 77 73 69 73 85 87 80 75 73
309 322 355 6 354 346 340 339 347 351 341 329 330 345 355 346 339 355 28 22 355 343 342 343 357 28 20 4 11 35 50 51 39 22 12 8 357 346 350 3 13 20 24 25 27 30 32 36 40 39 33 33 35 23 14 18 29 30 36 63 84 65 44 63 59 48 48 35 26 30 56 99 92 70 73 77 78 77 72 72 79 85 102 118 101
299 313 9 18 352 339 338 341 347 342 330 328 343 1 5 352 340 352 21 21 357 344 346 350 3 33 39 17 20 39 51 50 39 26 17 9 354 344 351 5 11 13 19 19 18 20 23 26 32 32 26 16 9 10 12 21 55 78 72 90 93 58 36 73 81 58 45 39 36 41 56 72 76 76 77 71 60 55 68 109 105 96 118 137 122
290 327 29 19 344 331 338 345 343 327 323 345 8 9 0 351 351 5 18 10 349 344 351 353 358 24 47 31 21 34 46 42 32 27 19 6 354 350 355 3 6 11 9 357 351 356 4 3 4 13 16 5 358 8 18 30 61 86 89 100 99 50 21 27 59 52 53 60 52 48 51 55 57 63 69 62 45 44 53 88 108 92 97 116 115
293 11 30 359 327 325 336 343 334 326 342 13 15 353 340 351 10 16 10 353 340 345 357 354 354 16 46 36 23 31 39 31 23 24 18 3 2 8 10 2 352 349 347 343 343 350 4 11 7 5 11 13 8 7 11 15 21 30 35 40 38 12 344 329 336 352 134 78 53 48 48 49 51 53 46 34 32 49 54 55 57 58 69 95 100
321 27 8 332 322 326 332 341 333 330 352 17 1 334 337 5 18 10 359 348 345 351 354 350 353 12 39 32 20 25 31 24 18 20 14 359 0 11 17 11 360 351 346 353 1 6 17 24 20 12 14 19 6 348 347 349 350 352 352 349 347 347 324 299 294 231 178 102 65 62 56 41 30 29 23 18 23 51 37 15 15 28 40 78 119
328 3 331 318 323 319 319 336 333 327 346 5 345 330 344 10 11 359 354 352 351 351 347 345 355 15 29 20 10 13 22 20 17 18 12 353 341 348 7 15 11 3 356 358 6 9 11 10 1 354 0 9 341 325 339 348 350 355 0 358 354 355 336 287 255 217 202 162 95 84 61 39 28 21 17 22 40 77 56 5 339 324 327 320 280